DW4839 Weather Reports


time (UTC)temp
F
wind
direction
speed
knots
gust
knots
rain 1hr
in
rain 24hr
in
rain mn
in
humidity
%
barometer
mb
20260508081604 53 269 0.9 1.7 0.00 0.00 0.00 69 1016.9
20260508080052 53 344 2.6 3.5 0.00 0.00 0.00 70 1016.7
20260508074553 53 352 2.6 4.3 0.00 0.00 0.00 68 1016.8
20260508073059 54 351 1.7 4.3 0.00 0.00 0.00 68 1016.9
20260508071553 54 348 1.7 3.5 0.00 0.00 0.00 67 1016.8
20260508064606 54 344 0.9 3.5 0.00 0.00 0.00 65 1017.1
20260508063055 55 344 2.6 4.3 0.00 0.00 0.00 63 1017.0
20260508061559 56 342 2.6 5.2 0.00 0.00 0.00 62 1016.9
20260508060059 56 344 2.6 4.3 0.00 0.00 0.00 62 1017.0
20260508054620 57 345 2.6 5.2 0.00 0.00 0.00 57 1016.9
20260508053059 58 344 3.5 7.0 0.00 0.00 0.00 57 1017.1
20260508051600 56 360 2.6 3.5 0.00 0.00 0.00 61 1017.0
20260508050057 57 349 1.7 4.3 0.00 0.00 0.00 60 1017.1
20260508044556 58 345 1.7 3.5 0.00 0.00 0.00 62 1017.0
20260508043058 57 344 1.7 3.5 0.00 0.00 0.00 61 1016.7
20260508041555 58 348 1.7 3.5 0.00 0.00 0.00 56 1016.7
20260508040105 59 14 1.7 2.6 0.00 0.00 0.00 47 1016.7
20260508034553 60 22 0.0 1.7 0.00 0.00 0.00 47 1016.5
20260508033051 61 26 0.9 3.5 0.00 0.00 0.00 44 1016.4
20260508031603 61 22 1.7 4.3 0.00 0.00 0.00 44 1016.3
20260508030057 61 13 1.7 2.6 0.00 0.00 0.00 48 1016.3
20260508024553 61 18 1.7 2.6 0.00 0.00 0.00 48 1016.3
20260508023050 62 5 0.9 1.7 0.00 0.00 0.00 48 1016.3
20260508021546 63 19 1.7 3.5 0.00 0.00 0.00 46 1016.2
20260508020052 63 13 1.7 3.5 0.00 0.00 0.00 49 1016.4
20260508014548 63 38 1.7 3.5 0.00 0.00 0.00 47 1016.4
20260508013053 63 348 0.9 1.7 0.00 0.00 0.00 48 1016.5
20260508011554 64 15 2.6 5.2 0.00 0.00 0.00 46 1016.6
20260508010050 65 17 2.6 4.3 0.00 0.00 0.00 42 1016.7
20260508004550 66 76 0.9 2.6 0.00 0.00 0.00 40 1016.7
20260508003055 66 20 0.9 3.5 0.00 0.00 0.00 42 1017.0
20260508001553 66 26 0.9 3.5 0.00 0.00 0.00 39 1017.0
20260508000108 67 228 0.9 3.5 0.00 0.00 0.00 35 1017.2
20260507234550 66 55 1.7 3.5 0.00 0.00 0.00 36 1017.3
20260507233051 66 323 1.7 4.3 0.00 0.00 0.00 38 1017.5
20260507231558 66 148 1.7 3.5 0.00 0.00 0.00 37 1017.5
20260507230056 66 194 1.7 3.5 0.00 0.00 0.00 39 1017.6
20260507224553 66 5 1.7 4.3 0.00 0.00 0.00 45 1017.8
20260507223055 67 241 0.9 4.3 0.00 0.00 0.00 44 1018.2
20260507221601 65 172 2.6 7.0 0.00 0.00 0.00 44 1018.2
20260507220056 64 200 0.0 4.3 0.00 0.00 0.00 48 1018.3
20260507214554 65 217 0.9 6.1 0.00 0.00 0.00 51 1018.4
20260507213052 64 113 0.9 7.0 0.00 0.00 0.00 49 1018.6
20260507211600 63 119 1.7 4.3 0.00 0.00 0.00 51 1018.7
20260507210052 64 337 0.9 3.5 0.00 0.00 0.00 53 1018.9
20260507204555 63 337 0.9 4.3 0.00 0.00 0.00 57 1019.1
20260507203052 61 198 0.9 4.3 0.00 0.00 0.00 58 1019.3
20260507201555 61 182 2.6 6.1 0.00 0.00 0.00 58 1019.3
20260507200053 61 231 1.7 6.1 0.00 0.00 0.00 55 1019.5
20260507194551 60 175 2.6 6.1 0.00 0.00 0.00 58 1019.5
20260507193058 60 56 1.7 6.1 0.00 0.00 0.00 61 1019.6
20260507191552 59 194 0.9 4.3 0.00 0.00 0.00 61 1019.8
20260507190056 58 179 1.7 4.3 0.00 0.00 0.00 64 1020.0
20260507184549 57 360 1.7 4.3 0.00 0.00 0.00 62 1020.0
20260507183055 57 17 1.7 7.0 0.00 0.00 0.00 69 1020.1
20260507181553 56 331 2.6 5.2 0.00 0.00 0.00 67 1020.4
20260507180055 56 352 0.9 4.3 0.00 0.00 0.00 69 1020.4
20260507174617 56 360 1.7 5.2 0.00 0.00 0.00 71 1020.5
20260507173056 54 67 3.5 7.0 0.00 0.00 0.00 72 1020.7
20260507171609 54 261 0.9 5.2 0.00 0.00 0.00 77 1020.6
20260507170057 53 352 3.5 6.1 0.00 0.00 0.00 74 1020.6
20260507164555 52 9 2.6 7.8 0.00 0.00 0.00 76 1020.6
20260507163051 51 22 2.6 4.3 0.00 0.00 0.00 75 1020.6
20260507161552 50 352 2.6 5.2 0.00 0.00 0.00 77 1020.6
20260507160112 50 352 3.5 7.8 0.00 0.00 0.00 78 1020.6
20260507154555 49 352 4.3 8.7 0.00 0.00 0.00 78 1020.5
20260507153055 48 15 4.3 9.6 0.00 0.00 0.00 79 1020.7
20260507151558 48 360 4.3 7.8 0.00 0.00 0.00 79 1020.6
20260507150050 48 29 3.5 8.7 0.00 0.00 0.00 80 1020.6
20260507144552 48 342 4.3 7.8 0.00 0.00 0.00 80 1020.5
20260507143058 48 360 5.2 9.6 0.00 0.00 0.00 80 1020.5
20260507141553 47 15 4.3 8.7 0.00 0.00 0.00 81 1020.5
20260507140110 47 331 4.3 7.0 0.00 0.00 0.00 82 1020.4
20260507134550 47 15 4.3 7.8 0.00 0.00 0.00 81 1020.3
20260507133056 47 40 4.3 7.8 0.00 0.00 0.00 82 1020.1
20260507131612 47 28 2.6 5.2 0.00 0.00 0.00 81 1020.3
20260507130106 47 5 3.5 7.0 0.00 0.00 0.00 82 1020.2
20260507124553 47 29 2.6 6.1 0.00 0.00 0.00 82 1020.2
20260507123101 48 352 1.7 5.2 0.00 0.00 0.00 83 1020.3
20260507121549 48 348 2.6 6.1 0.00 0.00 0.00 82 1020.3
20260507120058 48 23 1.7 3.5 0.00 0.00 0.00 83 1020.4
20260507114549 48 15 1.7 3.5 0.00 0.00 0.00 83 1020.6
20260507113123 48 5 0.9 5.2 0.00 0.00 0.00 83 1020.5
20260507111553 48 30 1.7 6.1 0.00 0.00 0.00 83 1020.5
20260507110055 49 340 2.6 8.7 0.00 0.00 0.00 82 1020.6
20260507104602 49 340 2.6 7.8 0.00 0.00 0.00 83 1020.6
20260507103053 49 30 1.7 3.5 0.00 0.00 0.00 83 1020.7
20260507101556 49 352 2.6 7.0 0.00 0.00 0.00 83 1020.8
20260507100056 49 352 2.6 5.2 0.00 0.00 0.00 83 1020.9
20260507094557 50 5 1.7 5.2 0.00 0.00 0.00 82 1020.9
20260507093050 50 342 1.7 4.3 0.00 0.00 0.00 83 1021.1
20260507091552 50 345 1.7 4.3 0.00 0.00 0.00 83 1021.3
20260507090051 50 344 1.7 4.3 0.00 0.00 0.00 83 1021.3
20260507084558 50 352 1.7 5.2 0.00 0.00 0.00 83 1021.3
20260507083047 50 349 2.6 7.0 0.00 0.00 0.00 83 1021.3